Location: Taylor Dark Sky Site
(39.1017°N, 87.9564°W)
Time: 07:14:45
(UTC-05:00)

Amateur Radio Satellites - All Passes

Search period start: 22 October 2014 06:44
Search period end: 23 October 2014 06:44
Location: Taylor Dark Sky Site, 39.1017°N, 87.9564°W

Satellite Date Start Highest point End Downlink Frequencies (MHz)
Time Altitude Azimuth
STRAND 1 22 Oct 06:53:43 06:58:51 87° 76° (ENE) 07:04:01 ?
JAS-2 22 Oct 06:55:53 07:03:33 69° 287° (WNW) 07:11:18 435.800 - 435.900 CW/SSB, 435.910 FM
Saudisat 1A 22 Oct 07:16:07 07:18:33 15° 109° (ESE) 07:21:00 436.775 MHz
AO-7 22 Oct 07:20:45 07:26:36 22° 306° (NW) 07:32:27 29.400 - 29.500 MHz
RS-15 22 Oct 07:25:58 07:37:02 62° 53° (NE) 07:48:32 29.354 - 29.394 USB, Beacon 29.352 USB
Hamsat 22 Oct 07:53:07 07:55:44 16° 293° (WNW) 07:58:22 145.90 MHz
SO-67 22 Oct 08:00:46 08:04:14 87° 279° (W) 08:07:40 435.3500 MHz FM
JAS-2 22 Oct 08:43:36 08:47:15 14° 305° (NW) 08:50:57 435.800 - 435.900 CW/SSB, 435.910 FM
Saudisat 1A 22 Oct 08:53:23 08:57:39 53° 305° (NW) 09:01:59 436.775 MHz
HO-68 22 Oct 09:21:05 09:27:52 43° 99° (E) 09:34:36 435.675 MHz FM
RS-15 22 Oct 09:38:57 09:48:51 38° 253° (WSW) 09:59:10 29.354 - 29.394 USB, Beacon 29.352 USB
PANSAT 22 Oct 09:40:29 09:42:45 15° 173° (S) 09:45:01 not established
MaSat-1 22 Oct 09:54:44 09:57:16 40° 62° (ENE) 09:59:36 437.345 MHz
Oscar 11 22 Oct 09:56:48 10:00:27 27° 96° (E) 10:04:06 145.825 FM, Beacon 2401.500 USB
ZACube-1 22 Oct 10:37:53 10:41:42 31° 96° (E) 10:45:26 437.345 MHz
UKube-1 22 Oct 10:48:12 10:52:34 72° 285° (WNW) 10:56:54 145.840 MHz, 145.915 MHz
HO-68 22 Oct 11:09:00 11:15:24 36° 296° (WNW) 11:21:48 435.675 MHz FM
KITSAT 1 22 Oct 11:10:32 11:15:03 16° 101° (E) 11:19:35 435.175 FM
PANSAT 22 Oct 11:19:54 11:22:14 16° 186° (S) 11:24:35 not established
FUNcube-1 22 Oct 11:23:01 11:27:18 76° 284° (WNW) 11:31:28 145.950 - 145.970 MHz USB
Oscar 11 22 Oct 11:33:02 11:36:31 25° 291° (WNW) 11:40:00 145.825 FM, Beacon 2401.500 USB
ZACube-1 22 Oct 12:14:43 12:17:53 20° 293° (WNW) 12:21:00 437.345 MHz
Oscar 16 22 Oct 12:15:46 12:18:42 15° 62° (ENE) 12:21:38 437.025 USB, Beacon 2401.1428
JAS-1B 22 Oct 12:34:37 12:38:55 21° 64° (ENE) 12:43:02 435.800 - 435.900 CW/SSB
AO-Echo 22 Oct 12:35:22 12:36:02 10° 59° (ENE) 12:36:41 ?
KITSAT 1 22 Oct 13:01:12 13:09:17 88° 118° (ESE) 13:17:25 435.175 FM
Sapphire 22 Oct 13:01:36 13:06:18 29° 52° (NE) 13:10:59 437.095 MHz 1200 baud AX-25 AFSK
Oscar 19 22 Oct 13:07:20 13:12:14 45° 71° (ENE) 13:17:07 437.125 CW, 437.150 USB
AO-27 22 Oct 13:19:05 13:23:15 25° 66° (ENE) 13:27:27 436.795 MHz FM
PCSat 22 Oct 13:24:10 13:29:24 46° 57° (ENE) 13:34:35 145.825 MHz
ISS 22 Oct 13:46:53 13:50:12 81° 140° (SE) 13:53:33 145.800 FM
Oscar 16 22 Oct 13:52:22 13:57:29 65° 258° (WSW) 14:02:38 437.025 USB, Beacon 2401.1428
Oscar 10/S400 22 Oct 13:52:29 14:10:47 41° 154° (SSE) 14:33:34 145.825 - 145.975 CW/USB, Beacon 145.810 USB
SO-50 22 Oct 13:53:43 13:58:11 77° 302° (WNW) 14:02:49 436.795 FM
Uribyol 2 22 Oct 14:06:57 14:12:09 74° 74° (ENE) 14:17:23 436.500 FM
AO-Echo 22 Oct 14:09:07 14:13:56 90° 75° (ENE) 14:18:58 ?
ITAMSAT 1 22 Oct 14:12:17 14:17:29 78° 75° (ENE) 14:22:43 435.822 SSB
Gurwin Techsat 1B 22 Oct 14:16:43 14:21:42 44° 70° (ENE) 14:26:43 435.225 FM
JAS-1B 22 Oct 14:23:20 14:29:18 50° 259° (W) 14:34:50 435.800 - 435.900 CW/SSB
TMSAT-1 22 Oct 14:29:44 14:34:42 42° 70° (ENE) 14:39:41 436.925 FM
AO-7 22 Oct 14:34:18 14:40:19 23° 54° (NE) 14:46:21 29.400 - 29.500 MHz
Sapphire 22 Oct 14:44:46 14:49:48 40° 249° (WSW) 14:54:49 437.095 MHz 1200 baud AX-25 AFSK
Oscar 19 22 Oct 14:48:00 14:51:45 20° 267° (W) 14:55:31 437.125 CW, 437.150 USB
AO-27 22 Oct 14:57:42 15:02:32 39° 262° (W) 15:07:25 436.795 MHz FM
KITSAT 1 22 Oct 14:59:26 15:05:44 24° 320° (NW) 15:12:04 435.175 FM
PCSat 22 Oct 15:08:17 15:12:28 23° 253° (WSW) 15:16:38 145.825 MHz
ISS 22 Oct 15:24:53 15:27:15 18° 338° (NNW) 15:29:38 145.800 FM
UOSAT-12 22 Oct 15:31:33 15:36:11 87° 301° (WNW) 15:40:55 437.025 FM, 437.400 FM
SO-50 22 Oct 15:37:54 15:39:34 12° 322° (NW) 15:41:14 436.795 FM
Saudisat 1A 22 Oct 15:43:23 15:45:07 12° 40° (NE) 15:46:52 436.775 MHz
Uribyol 2 22 Oct 15:50:02 15:52:08 12° 270° (W) 15:54:14 436.500 FM
Uosat F 22 Oct 15:52:00 15:56:35 38° 69° (ENE) 16:01:13 435.120 FM
ITAMSAT 1 22 Oct 15:55:49 15:57:31 12° 270° (W) 15:59:14 435.822 SSB
Gurwin Techsat 1B 22 Oct 15:57:47 16:01:49 22° 266° (W) 16:05:54 435.225 FM
TMSAT-1 22 Oct 16:10:39 16:14:45 23° 266° (W) 16:18:53 436.925 FM
AO-7 22 Oct 16:23:54 16:32:11 81° 253° (WSW) 16:40:31 29.400 - 29.500 MHz
JAS-2 22 Oct 17:07:04 17:12:35 48° 69° (ENE) 17:18:50 435.800 - 435.900 CW/SSB, 435.910 FM
Hamsat 22 Oct 17:08:44 17:12:11 25° 70° (ENE) 17:15:38 145.90 MHz
UOSAT-12 22 Oct 17:14:46 17:17:03 13° 320° (NW) 17:19:21 437.025 FM, 437.400 FM
Saudisat 1A 22 Oct 17:20:55 17:25:22 86° 59° (ENE) 17:29:47 436.775 MHz
OPAL 22 Oct 17:25:49 17:30:02 27° 98° (E) 17:34:11 ?
Uosat F 22 Oct 17:31:29 17:35:27 23° 265° (W) 17:39:27 435.120 FM
AO-7 22 Oct 18:22:08 18:26:05 14° 271° (W) 18:30:04 29.400 - 29.500 MHz
SO-67 22 Oct 18:32:40 18:35:27 23° 71° (ENE) 18:38:15 435.3500 MHz FM
ISS 22 Oct 18:40:48 18:42:54 15° 19° (NNE) 18:44:59 145.800 FM
AO-40 22 Oct 18:41:54 00:54:43 47° 182° (S) 05:00:14 Beacon 2401.320
Hamsat 22 Oct 18:44:34 18:48:03 25° 265° (W) 18:51:32 145.90 MHz
JAS-2 22 Oct 18:53:27 18:58:01 24° 269° (W) 19:03:03 435.800 - 435.900 CW/SSB, 435.910 FM
KITSAT 1 22 Oct 19:02:43 19:05:07 11° 22° (NNE) 19:07:31 435.175 FM
OPAL 22 Oct 19:04:30 19:08:53 32° 294° (WNW) 19:13:15 ?
STRAND 1 22 Oct 19:05:53 19:10:30 32° 97° (E) 19:15:04 ?
HO-68 22 Oct 19:49:05 19:55:02 29° 61° (ENE) 20:01:00 435.675 MHz FM
SO-67 22 Oct 20:06:07 20:08:24 17° 266° (W) 20:10:42 435.3500 MHz FM
ISS 22 Oct 20:16:44 20:20:05 72° 37° (NE) 20:23:24 145.800 FM
STRAND 1 22 Oct 20:45:10 20:49:34 29° 293° (WNW) 20:53:56 ?
SO-50 22 Oct 20:47:56 20:49:38 12° 38° (NE) 20:51:20 436.795 FM
Oscar 11 22 Oct 20:51:20 20:54:26 20° 67° (ENE) 20:57:32 145.825 FM, Beacon 2401.500 USB
KITSAT 1 22 Oct 20:56:01 21:03:22 37° 48° (NE) 21:10:41 435.175 FM
ZACube-1 22 Oct 21:33:13 21:36:57 25° 69° (ENE) 21:40:40 437.345 MHz
HO-68 22 Oct 21:35:24 21:42:20 54° 259° (W) 21:49:21 435.675 MHz FM
UKube-1 22 Oct 21:42:13 21:46:33 84° 76° (ENE) 21:50:56 145.840 MHz, 145.915 MHz
RS-15 22 Oct 21:48:47 21:58:48 42° 108° (ESE) 22:08:41 29.354 - 29.394 USB, Beacon 29.352 USB
ISS 22 Oct 21:55:15 21:56:20 11° 232° (SW) 21:57:25 145.800 FM
FUNcube-1 22 Oct 22:17:32 22:22:07 74° 76° (ENE) 22:26:40 145.950 - 145.970 MHz USB
SO-50 22 Oct 22:26:13 22:31:04 69° 57° (ENE) 22:35:56 436.795 FM
Oscar 11 22 Oct 22:26:24 22:30:22 35° 262° (W) 22:34:21 145.825 FM, Beacon 2401.500 USB
KITSAT 1 22 Oct 22:51:15 22:59:01 54° 248° (WSW) 23:06:46 435.175 FM
ZACube-1 22 Oct 23:09:08 23:13:12 30° 264° (W) 23:17:14 437.345 MHz
MaSat-1 22 Oct 23:30:54 23:34:12 22° 108° (ESE) 23:37:19 437.345 MHz
RS-15 23 Oct 00:00:05 00:10:47 55° 310° (NW) 00:21:30 29.354 - 29.394 USB, Beacon 29.352 USB
UOSAT-12 23 Oct 00:02:20 00:07:00 58° 55° (NE) 00:11:35 437.025 FM, 437.400 FM
SO-50 23 Oct 00:08:43 00:11:04 14° 252° (WSW) 00:13:25 436.795 FM
MaSat-1 23 Oct 01:06:07 01:09:47 29° 300° (WNW) 01:13:11 437.345 MHz
Oscar 19 23 Oct 01:21:10 01:24:29 17° 92° (E) 01:27:47 437.125 CW, 437.150 USB
UOSAT-12 23 Oct 01:44:00 01:46:38 15° 252° (WSW) 01:49:15 437.025 FM, 437.400 FM
Oscar 16 23 Oct 02:05:17 02:10:15 48° 100° (E) 02:15:11 437.025 USB, Beacon 2401.1428
JAS-1B 23 Oct 02:06:14 02:12:38 46° 100° (E) 02:20:10 435.800 - 435.900 CW/SSB
AO-Echo 23 Oct 02:17:32 02:22:20 34° 97° (E) 02:27:07 ?
RS-15 23 Oct 02:18:47 02:26:24 21° 340° (NNW) 02:34:06 29.354 - 29.394 USB, Beacon 29.352 USB
Uribyol 2 23 Oct 02:21:25 02:25:54 28° 96° (E) 02:30:19 436.500 FM
ITAMSAT 1 23 Oct 02:26:49 02:31:24 30° 96° (E) 02:35:56 435.822 SSB
Gurwin Techsat 1B 23 Oct 02:34:56 02:38:39 19° 93° (E) 02:42:20 435.225 FM
TMSAT-1 23 Oct 02:47:38 02:51:14 18° 92° (E) 02:54:50 436.925 FM
Oscar 19 23 Oct 02:59:09 03:04:07 52° 288° (WNW) 03:09:03 437.125 CW, 437.150 USB
AO-27 23 Oct 03:11:25 03:16:41 83° 104° (ESE) 03:21:54 436.795 MHz FM
Sapphire 23 Oct 03:42:30 03:47:11 31° 109° (ESE) 03:51:53 437.095 MHz 1200 baud AX-25 AFSK
Oscar 16 23 Oct 03:45:36 03:49:13 20° 296° (WNW) 03:52:50 437.025 USB, Beacon 2401.1428
AO-Echo 23 Oct 03:56:25 04:00:58 30° 292° (WNW) 04:05:30 ?
JAS-1B 23 Oct 03:57:26 04:03:06 32° 293° (WNW) 04:09:39 435.800 - 435.900 CW/SSB
Uribyol 2 23 Oct 04:00:43 04:05:20 33° 292° (WNW) 04:09:56 436.500 FM
Uosat F 23 Oct 04:02:47 04:04:48 12° 91° (E) 04:06:49 435.120 FM
PCSat 23 Oct 04:04:35 04:09:50 54° 113° (ESE) 04:15:06 145.825 MHz
ITAMSAT 1 23 Oct 04:06:15 04:10:49 32° 292° (WNW) 04:15:22 435.822 SSB
Gurwin Techsat 1B 23 Oct 04:13:44 04:18:52 50° 288° (WNW) 04:23:58 435.225 FM
TMSAT-1 23 Oct 04:26:18 04:31:26 52° 288° (WNW) 04:36:33 436.925 FM
AO-7 23 Oct 04:27:06 04:34:41 37° 98° (E) 04:42:12 29.400 - 29.500 MHz
RS-15 23 Oct 04:37:16 04:44:43 20° 17° (NNE) 04:52:17 29.354 - 29.394 USB, Beacon 29.352 USB
OPAL 23 Oct 04:39:18 04:44:12 45° 69° (ENE) 04:49:03 ?
AO-27 23 Oct 04:53:19 04:55:27 13° 300° (WNW) 04:57:34 436.795 MHz FM
Sapphire 23 Oct 05:25:32 05:30:29 36° 306° (NW) 05:35:28 437.095 MHz 1200 baud AX-25 AFSK
Uosat F 23 Oct 05:39:01 05:44:03 70° 286° (WNW) 05:49:04 435.120 FM
PCSat 23 Oct 05:49:19 05:53:33 23° 311° (NW) 05:57:50 145.825 MHz
JAS-2 23 Oct 06:01:03 06:08:40 55° 99° (E) 06:16:16 435.800 - 435.900 CW/SSB, 435.910 FM
OPAL 23 Oct 06:19:26 06:23:14 21° 264° (W) 06:27:02 ?
AO-7 23 Oct 06:19:41 06:27:32 48° 296° (WNW) 06:35:23 29.400 - 29.500 MHz
STRAND 1 23 Oct 06:20:39 06:25:26 42° 70° (ENE) 06:30:16 ?
Hamsat 23 Oct 06:30:20 06:34:29 59° 100° (E) 06:38:38 145.90 MHz
